Time,TemperatureF,DewpointF,PressureIn,WindDirection,WindDirectionDegrees,WindSpeedMPH,WindSpeedGustMPH,Humidity,HourlyPrecipIn,Conditions,Clouds,dailyrainin,SoftwareType,DateUTC
2016-07-26 00:05:00,63.0,34.0,-100.00,SW,219,7.0,-999.0,34,-99.99,,,-99.99,,2016-07-26 06:05:00,
2016-07-26 01:52:00,60.0,33.0,-100.00,SSW,199,5.0,13.0,36,-99.99,,,-99.99,,2016-07-26 07:52:00,
2016-07-26 01:57:00,60.0,33.0,-100.00,SSW,199,5.0,13.0,36,-99.99,,,-99.99,,2016-07-26 07:57:00,
2016-07-26 02:03:00,60.0,33.0,-100.00,SSW,199,5.0,13.0,36,-99.99,,,-99.99,,2016-07-26 08:03:00,
2016-07-26 02:13:00,60.0,33.0,-100.00,SSW,199,5.0,13.0,36,-99.99,,,-99.99,,2016-07-26 08:13:00,
2016-07-26 02:44:00,55.0,34.0,-100.00,SW,219,6.0,11.0,45,-99.99,,,-99.99,,2016-07-26 08:44:00,
2016-07-26 02:54:00,55.0,34.0,-100.00,SW,219,6.0,11.0,45,-99.99,,,-99.99,,2016-07-26 08:54:00,
2016-07-26 03:03:00,55.0,34.0,-100.00,SW,219,6.0,11.0,45,-99.99,,,-99.99,,2016-07-26 09:03:00,
2016-07-26 03:12:00,55.0,34.0,-100.00,SW,219,6.0,11.0,45,-99.99,,,-99.99,,2016-07-26 09:12:00,
2016-07-26 03:19:00,53.0,33.0,-100.00,South,183,1.0,-999.0,47,-99.99,,,-99.99,,2016-07-26 09:19:00,
2016-07-26 04:10:00,53.0,33.0,-100.00,South,183,1.0,-999.0,47,-99.99,,,-99.99,,2016-07-26 10:10:00,
2016-07-26 06:07:00,48.0,34.0,-100.00,SW,217,2.0,8.0,58,-99.99,,,-99.99,,2016-07-26 12:07:00,
2016-07-26 06:13:00,48.0,34.0,-100.00,SW,217,2.0,8.0,58,-99.99,,,-99.99,,2016-07-26 12:13:00,
2016-07-26 07:51:00,52.0,39.0,-100.00,SE,136,2.0,-999.0,60,-99.99,,,-99.99,,2016-07-26 13:51:00,
2016-07-26 07:57:00,52.0,39.0,-100.00,SE,136,2.0,4.0,60,-99.99,,,-99.99,,2016-07-26 13:57:00,
2016-07-26 08:14:00,52.0,39.0,-100.00,SE,136,2.0,4.0,60,-99.99,,,-99.99,,2016-07-26 14:14:00,
2016-07-26 08:45:00,63.0,35.0,-100.00,SSW,206,5.0,9.0,35,-99.99,,,-99.99,,2016-07-26 14:45:00,
2016-07-26 08:57:00,63.0,35.0,-100.00,SSW,206,5.0,9.0,35,-99.99,,,-99.99,,2016-07-26 14:57:00,
2016-07-26 09:04:00,63.0,35.0,-100.00,SSW,206,5.0,9.0,35,-99.99,,,-99.99,,2016-07-26 15:04:00,
2016-07-26 09:14:00,63.0,35.0,-100.00,SSW,206,5.0,-999.0,35,-99.99,,,-99.99,,2016-07-26 15:14:00,
2016-07-26 09:19:00,72.0,36.0,-100.00,SSE,161,2.0,-999.0,27,-99.99,,,-99.99,,2016-07-26 15:19:00,
2016-07-26 09:46:00,72.0,36.0,-100.00,SSE,161,2.0,-999.0,27,-99.99,,,-99.99,,2016-07-26 15:46:00,
2016-07-26 10:01:00,72.0,36.0,-100.00,SSE,161,2.0,-999.0,27,-99.99,,,-99.99,,2016-07-26 16:01:00,
2016-07-26 10:19:00,81.0,35.0,-100.00,NNE,17,3.0,-999.0,19,-99.99,,,-99.99,,2016-07-26 16:19:00,
2016-07-26 11:11:00,81.0,35.0,-100.00,North,-9999,-999.9,-999.0,19,-99.99,,,-99.99,,2016-07-26 17:11:00,
2016-07-26 11:19:00,87.0,40.0,-100.00,NE,47,9.0,-999.0,19,-99.99,,,-99.99,,2016-07-26 17:19:00,
2016-07-26 12:50:00,92.0,39.0,-100.00,NNE,13,6.0,15.0,16,-99.99,,,-99.99,,2016-07-26 18:50:00,
2016-07-26 13:09:00,92.0,39.0,-100.00,NNE,13,6.0,15.0,16,-99.99,,,-99.99,,2016-07-26 19:09:00,
2016-07-26 13:47:00,95.0,34.0,-100.00,SW,235,2.0,19.0,12,-99.99,,,-99.99,,2016-07-26 19:47:00,
2016-07-26 14:03:00,95.0,34.0,-100.00,SW,235,2.0,19.0,12,-99.99,,,-99.99,,2016-07-26 20:03:00,
2016-07-26 14:13:00,95.0,34.0,-100.00,SW,235,2.0,19.0,12,-99.99,,,-99.99,,2016-07-26 20:13:00,
2016-07-26 14:44:00,97.0,31.0,-100.00,NNE,24,7.0,12.0,10,-99.99,,,-99.99,,2016-07-26 20:44:00,
2016-07-26 14:55:00,97.0,31.0,-100.00,NNE,24,7.0,12.0,10,-99.99,,,-99.99,,2016-07-26 20:55:00,
2016-07-26 15:03:00,97.0,31.0,-100.00,NNE,24,7.0,12.0,10,-99.99,,,-99.99,,2016-07-26 21:03:00,
2016-07-26 15:13:00,97.0,31.0,-100.00,NNE,24,7.0,12.0,10,-99.99,,,-99.99,,2016-07-26 21:13:00,
2016-07-26 19:46:00,94.0,27.0,-100.00,West,276,14.0,28.0,9,-99.99,,,-99.99,,2016-07-27 01:46:00,
2016-07-26 19:55:00,94.0,27.0,-100.00,West,276,14.0,28.0,9,-99.99,,,-99.99,,2016-07-27 01:55:00,
2016-07-26 20:03:00,94.0,27.0,-100.00,West,276,14.0,28.0,9,-99.99,,,-99.99,,2016-07-27 02:03:00,
2016-07-26 20:54:00,91.0,33.0,-100.00,WSW,248,7.0,23.0,13,-99.99,,,-99.99,,2016-07-27 02:54:00,
2016-07-26 21:03:00,91.0,33.0,-100.00,WSW,248,7.0,23.0,13,-99.99,,,-99.99,,2016-07-27 03:03:00,
2016-07-26 21:13:00,91.0,33.0,-100.00,WSW,248,7.0,23.0,13,-99.99,,,-99.99,,2016-07-27 03:13:00,
2016-07-26 21:51:00,76.0,36.0,-100.00,SSW,201,5.0,-999.0,23,-99.99,,,-99.99,,2016-07-27 03:51:00,